Location: Bailleul
(50.3375°N, 2.8513°E)
Time: 10:28:36
(UTC+00:00)

CZ-4C R/B - Pass Details

Date: 19 April 2021
Orbit: 612 x 1389 km, 63.4° (Epoch: 05 May)

Event Time Altitude Azimuth Distance (km) Brightness Sun altitude
Rises 20:48:05 0° 270° (W) 3,222 6.0 -16.9°
Reaches altitude 10° 20:50:35 10° 281° (W) 2,401 5.4 -17.1°
Maximum altitude 20:55:30 30° 343° (NNW) 1,583 4.2 -17.7°
Drops below altitude 10° 21:01:19 10° 43° (NE) 2,880 5.0 -18.3°
Sets 21:04:37 0° 53° (NE) 3,976 5.6 -18.7°
